Home   Weather   Chicago   Past weeks
Flag for USA

Past Weather in Chicago, Illinois, USA — Yesterday and Last 2 Weeks

Now
30 °F

Passing clouds.


Feels Like: 25 °F
Forecast: 23 / 33 °F
Wind: 5 mph from East

Location: Chicago Midway Airport

Current Time: Dec 9, 2018 at 6:31:56 pm

Latest Report: Dec 9, 2018 at 5:53 pm


Visibility: 9 mi

Pressure: 30.36 "Hg

Humidity: 69%

Dew Point: 21 °F

Location of ChicagoLocation

Past Weather in Chicago — Graph

°F

Chicago Temperature Yesterday

Maximum temperature yesterday: 30 °F (at 1:39 pm)
Minimum temperature yesterday: 21 °F (at 12:53 am)
Average temperature yesterday: 25 °F

High & Low Weather Summary for the Past Weeks

 TemperatureHumidityPressure
High47 °F (Dec 2, 7:53 am)97% (Dec 2, 4:53 am)30.67 "Hg (Dec 2, 4:53 am)
Low17 °F (Dec 7, 4:53 am)47% (Dec 6, 1:53 pm)29.30 "Hg (Dec 1, 9:40 pm)
Average31 °F75%30.03 "Hg
* Reported Nov 24 4:53 pm — Dec 9 4:53 pm, Chicago. Weather by CustomWeather, © 2018

Note: Actual official high and low records may vary slightly from our data, if they occured in-between our weather recording intervals... More about our weather records

Advertising

Chicago Weather History for the Previous 24 Hours

Scroll right to see more
 ConditionsComfort  
Time TempWeatherWind HumidityBarometerVisibility
4:53 pm
Sun, Dec 9
30 °FPassing clouds.5 mph69%30.36 "Hg9 mi
3:53 pm34 °FPassing clouds.5 mph50%30.36 "Hg10 mi
2:53 pm35 °FPassing clouds.3 mph52%30.37 "Hg10 mi
1:53 pm35 °FPassing clouds.5 mph50%30.37 "Hg10 mi
12:53 pm33 °FPassing clouds.6 mph58%30.38 "Hg10 mi
11:53 am31 °FPassing clouds.6 mph67%30.40 "Hg8 mi
11:28 am31 °FScattered clouds.No wind67%30.37 "Hg8 mi
10:53 am28 °FPartly sunny.No wind75%30.44 "Hg8 mi
9:53 am28 °FPartly sunny.3 mph75%30.46 "Hg8 mi
8:53 am24 °FPartly sunny.3 mph81%30.46 "Hg8 mi
7:53 am22 °FPartly sunny.5 mph82%30.46 "Hg8 mi
6:53 am20 °FPassing clouds.3 mph82%30.45 "Hg7 mi
5:53 am18 °FPassing clouds.3 mph84%30.45 "Hg8 mi
4:53 am19 °FPassing clouds.3 mph81%30.45 "Hg8 mi
3:53 am19 °FPassing clouds.No wind81%30.47 "Hg8 mi
2:53 am19 °FClear.No wind85%30.49 "Hg9 mi
1:53 am21 °FClear.No wind78%30.49 "Hg9 mi
12:53 am20 °FClear.3 mph78%30.50 "Hg9 mi
11:53 pm
Sat, Dec 8
21 °FClear.3 mph78%30.53 "Hg9 mi
10:53 pm21 °FPassing clouds.No wind74%30.53 "Hg9 mi
9:53 pm21 °FPassing clouds.3 mph78%30.55 "Hg9 mi
8:53 pm24 °FPassing clouds.3 mph71%30.57 "Hg10 mi
7:53 pm24 °FClear.3 mph68%30.57 "Hg10 mi
6:53 pm26 °FClear.3 mph69%30.58 "Hg10 mi
Weather by CustomWeather, © 2018

See weather overview